Location: Gälforsberget
(66.6500°N, 22.4167°E)
Time: 21:37:42
(UTC+00:00)

CZ-2C R/B - Pass Details

Date: 11 April 2026
Orbit: 781 x 868 km, 98.4° (Epoch: 16 May)

Event Time Altitude Azimuth Distance (km) Brightness Sun altitude
Exits shadow 20:21:28 - 112° (ESE) 2,642 4.8 -11.2°
Reaches altitude 10° 20:21:51 10° 110° (ESE) 2,502 4.7 -11.2°
Maximum altitude 20:26:55 38° 45° (NE) 1,287 3.8 -11.5°
Drops below altitude 10° 20:31:55 10° 339° (NNW) 2,467 6.6 -11.7°
Sets 20:34:24 0° 332° (NNW) 3,391 8.0 -11.9°
